Location: Newark
(45.8667°N, 9.7333°E)
Time: 12:55:04
(UTC+00:00)

N. Korean satellite - Visible Passes

Search period start: 10 December 2019 00:00
Search period end: 20 December 2019 00:00
Orbit: 456 x 506 km, 97.2° (Epoch: 09 December)

Date Brightness Start Highest point End Pass type
(mag) Time Alt. Az. Time Alt. Az. Time Alt. Az.
10 Dec 7.4 05:02:05 10° NNE 05:05:34 52° E 05:08:57 10° S visible
10 Dec 9.4 17:13:30 10° SW 17:16:23 21° W 17:19:16 10° NW visible
11 Dec 8.9 04:37:02 10° NE 04:40:00 25° E 04:42:56 10° SSE visible
11 Dec 7.7 06:10:31 10° NNW 06:13:18 22° WNW 06:16:03 10° WSW visible
11 Dec 8.1 16:47:18 10° S 16:50:50 41° W 16:54:21 10° NNW visible
12 Dec 9.9 04:12:41 10° ENE 04:14:22 13° E 04:16:01 10° ESE visible
12 Dec 6.8 05:44:38 10° N 05:48:00 42° WNW 05:51:19 10° SW visible
12 Dec 6.7 16:21:39 10° SSE 16:25:21 86° WSW 16:29:03 10° NNW visible
13 Dec 6.4 05:19:05 10° NNE 05:22:38 88° ESE 05:26:05 10° SSW visible
13 Dec 9.9 17:31:40 10° WSW 17:33:36 14° W 17:35:32 10° WNW visible
14 Dec 7.9 04:53:48 10° NNE 04:57:09 40° E 05:00:25 10° S visible
14 Dec 9.1 17:04:51 10° SSW 17:07:58 26° W 17:11:07 10° NW visible
15 Dec 9.2 04:28:54 10° NE 04:31:34 20° E 04:34:10 10° SE visible
15 Dec 7.4 06:01:58 10° N 06:04:58 26° WNW 06:07:54 10° SW visible
15 Dec 7.6 16:38:50 10° S 16:42:26 51° W 16:46:02 10° NNW visible
16 Dec 10.1 04:05:35 10° E 04:05:53 10° E 04:06:11 10° E visible
16 Dec 6.5 05:36:13 10° N 05:39:38 54° WNW 05:43:00 10° SSW visible
16 Dec 6.5 16:13:19 10° SSE 16:17:00 75° ENE 16:20:39 10° N visible
17 Dec 6.7 05:10:43 10° NNE 05:14:13 69° ESE 05:17:38 10° S visible
17 Dec 9.8 17:22:44 10° SW 17:25:09 17° W 17:27:34 10° NW visible
18 Dec 8.4 04:45:32 10° NNE 04:48:42 31° E 04:51:48 10° SSE visible
18 Dec 8.0 06:19:30 10° NNW 06:21:52 17° WNW 06:24:12 10° WSW visible
18 Dec 8.6 16:56:15 10° SSW 16:59:33 31° W 17:02:51 10° NNW visible
19 Dec 9.6 04:20:51 10° NE 04:23:05 16° E 04:25:17 10° SE visible
19 Dec 7.1 05:53:27 10° N 05:56:36 32° WNW 05:59:42 10° SW visible
19 Dec 7.1 16:30:24 10° S 16:34:03 66° W 16:37:40 10° NNW visible
